| time (UTC) | temp C | wind direction | speed KPH | gust KPH | rain 1hr cm | rain 24hr cm | rain mn cm | humidity % | barometer mb |
| 20260506202027 | 11 | 56 | 3.2 | 9.7 | 0.00 | 0.00 | 0.00 | 95 | 1017.1 |
| 20260506201019 | 11 | 49 | 3.2 | 8.0 | 0.00 | 0.00 | 0.00 | 94 | 1017.1 |
| 20260506200027 | 11 | 44 | 1.6 | 4.8 | 0.00 | 0.00 | 0.00 | 94 | 1017.0 |
| 20260506195019 | 11 | 41 | 1.6 | 8.0 | 0.00 | 0.00 | 0.00 | 94 | 1017.1 |
| 20260506194028 | 11 | 55 | 3.2 | 8.0 | 0.00 | 0.00 | 0.00 | 94 | 1017.0 |
| 20260506193059 | 11 | 30 | 1.6 | 3.2 | 0.00 | 0.00 | 0.00 | 94 | 1016.9 |
| 20260506192028 | 11 | 62 | 1.6 | 8.0 | 0.00 | 0.00 | 0.00 | 93 | 1017.0 |
| 20260506191035 | 11 | 38 | 3.2 | 4.8 | 0.00 | 0.00 | 0.00 | 94 | 1016.8 |
| 20260506190043 | 11 | 27 | 3.2 | 8.0 | 0.00 | 0.00 | 0.00 | 94 | 1016.9 |
| 20260506185035 | 11 | 61 | 3.2 | 8.0 | 0.00 | 0.00 | 0.00 | 94 | 1016.7 |
| 20260506184032 | 11 | 47 | 4.8 | 11.3 | 0.00 | 0.00 | 0.00 | 95 | 1016.7 |
| 20260506181526 | 11 | 41 | 3.2 | 8.0 | 0.00 | 0.00 | 0.00 | 94 | 1016.5 |
| 20260506180547 | 12 | 51 | 3.2 | 8.0 | 0.00 | 0.00 | 0.00 | 94 | 1016.5 |
| 20260506175536 | 12 | 50 | 3.2 | 8.0 | 0.00 | 0.00 | 0.00 | 93 | 1016.3 |
| 20260506174533 | 12 | 46 | 4.8 | 9.7 | 0.00 | 0.00 | 0.00 | 93 | 1016.2 |
| 20260506173539 | 12 | 44 | 4.8 | 9.7 | 0.00 | 0.00 | 0.00 | 92 | 1016.1 |
| 20260506172551 | 12 | 65 | 3.2 | 11.3 | 0.00 | 0.00 | 0.00 | 92 | 1016.3 |
| 20260506171540 | 12 | 34 | 4.8 | 11.3 | 0.00 | 0.00 | 0.00 | 92 | 1016.1 |
| 20260506170607 | 12 | 52 | 4.8 | 11.3 | 0.00 | 0.00 | 0.00 | 92 | 1016.0 |
| 20260506165559 | 12 | 71 | 4.8 | 11.3 | 0.00 | 0.00 | 0.00 | 90 | 1016.0 |
| 20260506164531 | 13 | 58 | 4.8 | 11.3 | 0.00 | 0.00 | 0.00 | 89 | 1015.9 |
| 20260506163540 | 13 | 40 | 4.8 | 12.9 | 0.00 | 0.00 | 0.00 | 87 | 1015.9 |
| 20260506162531 | 13 | 38 | 4.8 | 9.7 | 0.00 | 0.00 | 0.00 | 85 | 1016.0 |
| 20260506161543 | 13 | 49 | 6.4 | 16.1 | 0.00 | 0.00 | 0.00 | 83 | 1015.9 |
| 20260506160624 | 14 | 62 | 3.2 | 8.0 | 0.00 | 0.00 | 0.00 | 83 | 1015.9 |
| 20260506155524 | 14 | 41 | 4.8 | 11.3 | 0.00 | 0.00 | 0.00 | 83 | 1015.8 |
| 20260506154554 | 14 | 47 | 4.8 | 11.3 | 0.00 | 0.00 | 0.00 | 81 | 1015.9 |
| 20260506153523 | 15 | 49 | 4.8 | 12.9 | 0.00 | 0.00 | 0.00 | 79 | 1016.0 |
| 20260506152532 | 15 | 22 | 6.4 | 14.5 | 0.00 | 0.00 | 0.00 | 78 | 1015.9 |
| 20260506151539 | 15 | 59 | 6.4 | 11.3 | 0.00 | 0.00 | 0.00 | 77 | 1016.1 |
| 20260506150531 | 15 | 41 | 4.8 | 16.1 | 0.00 | 0.00 | 0.00 | 77 | 1016.1 |
| 20260506145541 | 15 | 36 | 4.8 | 11.3 | 0.00 | 0.00 | 0.00 | 77 | 1016.1 |
| 20260506144531 | 15 | 64 | 4.8 | 14.5 | 0.00 | 0.00 | 0.00 | 77 | 1016.2 |
| 20260506143555 | 15 | 52 | 4.8 | 11.3 | 0.00 | 0.00 | 0.00 | 75 | 1016.1 |
| 20260506142547 | 15 | 56 | 8.0 | 16.1 | 0.00 | 0.00 | 0.00 | 75 | 1016.3 |
| 20260506141540 | 16 | 54 | 6.4 | 14.5 | 0.00 | 0.00 | 0.00 | 73 | 1016.1 |
| 20260506140531 | 16 | 71 | 6.4 | 16.1 | 0.00 | 0.00 | 0.00 | 73 | 1016.2 |
| 20260506135543 | 16 | 48 | 6.4 | 17.7 | 0.00 | 0.00 | 0.00 | 72 | 1016.2 |
| 20260506134532 | 15 | 59 | 8.0 | 16.1 | 0.00 | 0.00 | 0.00 | 72 | 1016.1 |
| 20260506133556 | 16 | 41 | 8.0 | 17.7 | 0.00 | 0.00 | 0.00 | 69 | 1016.1 |
| 20260506132548 | 16 | 48 | 6.4 | 16.1 | 0.00 | 0.00 | 0.00 | 68 | 1016.0 |
| 20260506131523 | 16 | 34 | 8.0 | 17.7 | 0.00 | 0.00 | 0.00 | 66 | 1016.0 |
| 20260506130547 | 16 | 71 | 9.7 | 20.9 | 0.00 | 0.00 | 0.00 | 63 | 1016.1 |
| 20260506125524 | 17 | 54 | 6.4 | 12.9 | 0.00 | 0.00 | 0.00 | 61 | 1016.2 |
| 20260506124547 | 17 | 67 | 9.7 | 20.9 | 0.00 | 0.00 | 0.00 | 57 | 1016.2 |
| 20260506123524 | 17 | 47 | 9.7 | 17.7 | 0.00 | 0.00 | 0.00 | 54 | 1016.3 |
| 20260506122533 | 17 | 57 | 6.4 | 12.9 | 0.00 | 0.00 | 0.00 | 55 | 1016.4 |
| 20260506121523 | 17 | 51 | 6.4 | 17.7 | 0.00 | 0.00 | 0.00 | 57 | 1016.4 |
| 20260506120534 | 17 | 43 | 8.0 | 20.9 | 0.00 | 0.00 | 0.00 | 58 | 1016.4 |
| 20260506115540 | 17 | 42 | 4.8 | 14.5 | 0.00 | 0.00 | 0.00 | 59 | 1016.7 |
| 20260506114548 | 16 | 35 | 8.0 | 17.7 | 0.00 | 0.00 | 0.00 | 62 | 1016.7 |
| 20260506113539 | 16 | 50 | 9.7 | 22.5 | 0.00 | 0.00 | 0.00 | 62 | 1016.7 |
| 20260506112531 | 17 | 25 | 8.0 | 16.1 | 0.00 | 0.00 | 0.00 | 61 | 1016.7 |
| 20260506111523 | 17 | 40 | 6.4 | 20.9 | 0.00 | 0.00 | 0.00 | 60 | 1016.7 |
| 20260506110532 | 18 | 35 | 3.2 | 8.0 | 0.00 | 0.00 | 0.00 | 57 | 1016.8 |
| 20260506105524 | 17 | 50 | 4.8 | 14.5 | 0.00 | 0.00 | 0.00 | 57 | 1016.7 |
| 20260506104547 | 17 | 58 | 8.0 | 20.9 | 0.00 | 0.00 | 0.00 | 56 | 1016.9 |
| 20260506103600 | 17 | 52 | 8.0 | 14.5 | 0.00 | 0.00 | 0.00 | 55 | 1016.9 |
| 20260506102547 | 17 | 49 | 6.4 | 17.7 | 0.00 | 0.00 | 0.00 | 54 | 1016.8 |
| 20260506101601 | 17 | 51 | 6.4 | 11.3 | 0.00 | 0.00 | 0.00 | 57 | 1016.9 |
| 20260506100532 | 17 | 58 | 3.2 | 9.7 | 0.00 | 0.00 | 0.00 | 59 | 1016.9 |
| 20260506095541 | 17 | 62 | 4.8 | 11.3 | 0.00 | 0.00 | 0.00 | 57 | 1017.0 |
| 20260506094552 | 17 | 47 | 3.2 | 12.9 | 0.00 | 0.00 | 0.00 | 57 | 1017.0 |
| 20260506093704 | 17 | 53 | 4.8 | 12.9 | 0.00 | 0.00 | 0.00 | 58 | 1017.0 |
| 20260506092548 | 17 | 43 | 4.8 | 14.5 | 0.00 | 0.00 | 0.00 | 58 | 1017.0 |
| 20260506091540 | 17 | 40 | 3.2 | 4.8 | 0.00 | 0.00 | 0.00 | 58 | 1017.1 |
| 20260506090551 | 16 | 56 | 4.8 | 17.7 | 0.00 | 0.00 | 0.00 | 59 | 1017.0 |
| 20260506085524 | 16 | 69 | 3.2 | 12.9 | 0.00 | 0.00 | 0.00 | 63 | 1017.2 |
| 20260506084535 | 16 | 78 | 3.2 | 14.5 | 0.00 | 0.00 | 0.00 | 67 | 1017.1 |
| 20260506083544 | 15 | 56 | 3.2 | 8.0 | 0.00 | 0.00 | 0.00 | 69 | 1017.1 |
| 20260506082548 | 15 | 50 | 4.8 | 9.7 | 0.00 | 0.00 | 0.00 | 71 | 1017.0 |
| 20260506081541 | 14 | 50 | 6.4 | 14.5 | 0.00 | 0.00 | 0.00 | 74 | 1016.9 |
| 20260506080548 | 14 | 46 | 3.2 | 8.0 | 0.00 | 0.00 | 0.00 | 79 | 1016.9 |
| 20260506072636 | 13 | 55 | 4.8 | 11.3 | 0.00 | 0.00 | 0.00 | 79 | 1016.7 |
| 20260506071600 | 13 | 61 | 4.8 | 11.3 | 0.00 | 0.00 | 0.00 | 74 | 1016.7 |
| 20260506070532 | 15 | 76 | 6.4 | 14.5 | 0.00 | 0.00 | 0.00 | 67 | 1016.5 |
| 20260506062029 | 13 | 229 | 3.2 | 4.8 | 0.00 | 0.00 | 0.00 | 72 | 1016.4 |
| 20260506061053 | 12 | 9 | 1.6 | 3.2 | 0.00 | 0.00 | 0.00 | 74 | 1016.6 |
| 20260506051020 | 8 | 147 | 4.8 | 8.0 | 0.00 | 0.00 | 0.00 | 87 | 1016.4 |
| 20260506045037 | 7 | 218 | 3.2 | 4.8 | 0.00 | 0.00 | 0.00 | 90 | 1016.2 |
| 20260506044029 | 6 | 226 | 4.8 | 9.7 | 0.00 | 0.00 | 0.00 | 92 | 1016.2 |
| 20260506043020 | 6 | 245 | 6.4 | 9.7 | 0.00 | 0.00 | 0.00 | 91 | 1016.2 |
| 20260506042028 | 6 | 211 | 3.2 | 9.7 | 0.00 | 0.00 | 0.00 | 92 | 1016.2 |
| 20260506041021 | 5 | 232 | 6.4 | 11.3 | 0.00 | 0.00 | 0.00 | 93 | 1016.1 |
| 20260506040029 | 5 | 232 | 8.0 | 12.9 | 0.00 | 0.00 | 0.00 | 93 | 1016.1 |
| 20260506035041 | 5 | 234 | 6.4 | 11.3 | 0.00 | 0.00 | 0.00 | 94 | 1016.0 |
| 20260506034029 | 5 | 232 | 8.0 | 11.3 | 0.00 | 0.00 | 0.00 | 96 | 1015.9 |
| 20260506033040 | 5 | 226 | 4.8 | 11.3 | 0.00 | 0.00 | 0.00 | 97 | 1015.8 |
| 20260506032044 | 5 | 152 | 3.2 | 4.8 | 0.00 | 0.00 | 0.00 | 97 | 1015.8 |
| 20260506031037 | 5 | 199 | 4.8 | 11.3 | 0.00 | 0.00 | 0.00 | 97 | 1015.6 |
| 20260506030028 | 5 | 262 | 1.6 | 4.8 | 0.00 | 0.00 | 0.00 | 97 | 1015.5 |
| 20260506025020 | 5 | 232 | 6.4 | 9.7 | 0.00 | 0.00 | 0.00 | 98 | 1015.5 |
| 20260506024044 | 5 | 233 | 4.8 | 9.7 | 0.00 | 0.00 | 0.00 | 98 | 1015.7 |
| 20260506023036 | 5 | 227 | 6.4 | 9.7 | 0.00 | 0.00 | 0.00 | 98 | 1015.6 |
| 20260506022048 | 5 | 240 | 1.6 | 4.8 | 0.00 | 0.00 | 0.00 | 98 | 1015.5 |
| 20260506021021 | 5 | 237 | 3.2 | 9.7 | 0.00 | 0.00 | 0.00 | 98 | 1015.5 |
| 20260506020045 | 5 | 221 | 4.8 | 9.7 | 0.00 | 0.00 | 0.00 | 98 | 1015.6 |
| 20260506015036 | 6 | 174 | 4.8 | 9.7 | 0.00 | 0.00 | 0.00 | 98 | 1015.5 |
| 20260506014029 | 6 | 189 | 4.8 | 9.7 | 0.00 | 0.00 | 0.00 | 98 | 1015.4 |
| 20260506013020 | 6 | 171 | 1.6 | 3.2 | 0.00 | 0.00 | 0.00 | 98 | 1015.6 |
| 20260506012104 | 6 | 221 | 1.6 | 8.0 | 0.00 | 0.00 | 0.00 | 99 | 1015.7 |
| 20260506011020 | 6 | 20 | 0.0 | 1.6 | 0.00 | 0.00 | 0.00 | 99 | 1015.7 |
| 20260506010028 | 6 | 64 | 1.6 | 3.2 | 0.00 | 0.00 | 0.00 | 99 | 1015.8 |
| 20260506005021 | 6 | 84 | 1.6 | 3.2 | 0.00 | 0.00 | 0.00 | 98 | 1015.7 |
| 20260506004045 | 7 | 0.0 | 0.0 | 0.00 | 0.00 | 0.00 | 98 | 1015.7 | |
| 20260506003036 | 7 | 67 | 0.0 | 1.6 | 0.00 | 0.00 | 0.00 | 98 | 1015.7 |
| 20260506002029 | 7 | 235 | 4.8 | 8.0 | 0.00 | 0.00 | 0.00 | 98 | 1015.8 |
| 20260506001021 | 7 | 118 | 0.0 | 3.2 | 0.00 | 0.00 | 0.00 | 97 | 1015.7 |
| 20260506000044 | 7 | 108 | 1.6 | 3.2 | 0.00 | 0.00 | 0.00 | 96 | 1015.6 |
| 20260505235037 | 7 | 105 | 0.0 | 3.2 | 0.00 | 0.00 | 0.00 | 96 | 1015.7 |
| 20260505234028 | 7 | 259 | 3.2 | 8.0 | 0.00 | 0.00 | 0.00 | 95 | 1015.9 |
| 20260505233020 | 7 | 230 | 4.8 | 8.0 | 0.00 | 0.00 | 0.00 | 96 | 1015.9 |
| 20260505232049 | 7 | 255 | 4.8 | 8.0 | 0.00 | 0.00 | 0.00 | 95 | 1016.1 |
| 20260505231020 | 8 | 229 | 4.8 | 9.7 | 0.00 | 0.00 | 0.00 | 94 | 1016.2 |
| 20260505230030 | 7 | 121 | 3.2 | 4.8 | 0.00 | 0.00 | 0.00 | 92 | 1016.3 |
| 20260505225020 | 8 | 14 | 0.0 | 1.6 | 0.00 | 0.00 | 0.00 | 93 | 1016.3 |
| 20260505224105 | 9 | 350 | 1.6 | 3.2 | 0.00 | 0.00 | 0.00 | 94 | 1016.5 |
| 20260505223021 | 10 | 26 | 0.0 | 1.6 | 0.00 | 0.00 | 0.00 | 95 | 1016.6 |
| 20260505222105 | 10 | 52 | 0.0 | 3.2 | 0.00 | 0.00 | 0.00 | 95 | 1016.4 |
| 20260505221036 | 11 | 0.0 | 0.0 | 0.00 | 0.00 | 0.00 | 95 | 1016.6 | |
| 20260505220055 | 11 | 43 | 1.6 | 3.2 | 0.00 | 0.00 | 0.00 | 94 | 1016.6 |
| 20260505215021 | 11 | 47 | 1.6 | 3.2 | 0.00 | 0.00 | 0.00 | 92 | 1016.6 |
| 20260505214045 | 11 | 49 | 1.6 | 3.2 | 0.00 | 0.00 | 0.00 | 90 | 1016.5 |
| 20260505213021 | 11 | 7 | 1.6 | 3.2 | 0.00 | 0.00 | 0.00 | 88 | 1016.4 |
| 20260505212044 | 11 | 28 | 1.6 | 3.2 | 0.00 | 0.00 | 0.00 | 89 | 1016.6 |
| 20260505211037 | 11 | 28 | 1.6 | 4.8 | 0.00 | 0.00 | 0.00 | 89 | 1016.5 |
| 20260505210028 | 11 | 23 | 1.6 | 4.8 | 0.00 | 0.00 | 0.00 | 86 | 1016.5 |
| 20260505205021 | 11 | 17 | 3.2 | 8.0 | 0.00 | 0.00 | 0.00 | 81 | 1016.6 |
| 20260505204044 | 11 | 9 | 3.2 | 4.8 | 0.00 | 0.00 | 0.00 | 75 | 1016.5 |
| 20260505203036 | 11 | 47 | 1.6 | 3.2 | 0.00 | 0.00 | 0.00 | 73 | 1016.6 |